Location: Newark
(42.8481°N, 0.4872°E)
Time: 23:46:08
(UTC+00:00)

Vanguard 1 - Pass Details

Date: 01 November 2020
Orbit: 650 x 3833 km, 34.2° (Epoch: 29 November)

Event Time Altitude Azimuth Distance (km) Brightness Sun altitude
Rises 15:21:19 0° 272° (W) 7,838 15.6 13.6°
Reaches altitude 10° 15:26:37 10° 269° (W) 6,916 15.5 12.8°
Maximum altitude 15:49:25 61° 197° (SSW) 3,685 13.5 9.2°
Drops below altitude 10° 16:05:17 10° 122° (ESE) 5,039 13.4 6.7°
Sets 16:08:28 0° 119° (ESE) 5,700 13.6 6.2°
